Regional Weather Roundup
Issued by NWS

Home | Current Version | Previous Version | Graphics & Text | Print | Product List | Glossary On
Versions: 1 2 3 4 5 6 7 8 9 10 11 12 13 14 15 16 17 18 19 20 21 22 23 24 25 26 27 28 29 30 31 32 33 34 35 36 37 38 39 40 41 42 43 44 45 46 47 48 49 50
000
ASUS43 KDTX 021610
RWRMI
MICHIGAN HOURLY REGIONAL WEATHER ROUNDUP
NATIONAL WEATHER SERVICE DETROIT/PONTIAC MI
ISSUED BY NATIONAL WEATHER SERVICE GRAND RAPIDS MI
1100 AM EST FRI DEC 02 2016

NOTE: "FAIR" INDICATES FEW OR NO CLOUDS BELOW 12,000 FEET WITH NO
SIGNIFICANT WEATHER AND/OR OBSTRUCTION TO VISIBILITY.

MIZ047>049-052>055-059>063-066>070-074>076-081>083-021700-
SOUTHEAST LOWER MICHIGAN

CITY           SKY/WX    TMP DP  RH WIND       PRES   REMARKS
ADRIAN         CLOUDY    38  33  82 NW14      30.08R WCI  30
ALMA           CLOUDY    36  31  81 W14       30.07R WCI  27
ANN ARBOR      CLOUDY    38  34  85 W14       30.05R WCI  30
BAD AXE        CLOUDY    36  28  70 W18G24    29.98R WCI  26
DETROIT CITY   CLOUDY    39  32  76 NW8       30.04R WCI  33
DETROIT        CLOUDY    40  34  79 W12       30.06R WCI  33
FLINT          CLOUDY    37  31  78 W15       30.05R WCI  28
GROSSE ILE     CLOUDY    39  34  82 W10       30.05R WCI  32
HILLSDALE      CLOUDY    36  32  87 W12G17    30.06R WCI  27
HOWELL         CLOUDY    38  30  73 W15       30.04R WCI  30

CITY           SKY/WX    TMP DP  RH WIND       PRES   REMARKS
JACKSON        CLOUDY    36  36 100 W7        30.07R WCI  30
LANSING        PTSUNNY   38  26  62 NW17G23   30.07R WCI  28
MASON          CLOUDY    37  32  81 NW12G17   30.06R WCI  29
MONROE         DRIZZLE   37  35  92 W10G16    30.07R WCI  29
MT. CLEMENS    CLOUDY    39  31  75 W14G21    30.01S WCI  30
PONTIAC        CLOUDY    37  29  72 NW14      30.02R WCI  28
PORT HOPE        N/A     37  31  78 W10G23    29.94R WCI  30
PORT HURON     CLOUDY    37  28  70 NW12G20   30.02R WCI  30
TRI CITIES     PTSUNNY   39  29  67 W17G23    30.04R WCI  30
YPSILANTI      CLOUDY    40  35  83 W9        30.06R WCI  34
$$
MIZ043>046-050>051-056>058-064>065-071>073-077>080-021700-
SOUTHWEST LOWER MICHIGAN

CITY           SKY/WX    TMP DP  RH WIND       PRES   REMARKS
BATTLE CREEK   CLOUDY    37  35  92 W10       30.09R WCI  30
BENTON HARBOR  CLOUDY    40  29  64 NW8       30.13R WCI  34
BIG RAPIDS     CLOUDY    35  29  79 NW7       30.06R WCI  30
COLDWATER      CLOUDY    37  34  87 W14G21    30.09R WCI  29
HOLLAND        CLOUDY    38  29  70 NW7       30.11R WCI  33
GRAND RAPIDS   CLOUDY    37  26  64 W8        30.10R WCI  31
KALAMAZOO      CLOUDY    38  32  79 NW8       30.10R WCI  32
MARSHALL       CLOUDY    35  34  98 W6        30.08R WCI  30
MOUNT PLEASANT MOSUNNY   37  31  79 W12       30.05R WCI  29
MUSKEGON       CLOUDY    37  27  67 NW9G20    30.11R WCI  30
STURGIS        RAIN      37  33  85 W8        30.10R WCI  31
$$
MIZ016>042-021700-
NORTHERN LOWER MICHIGAN

CITY           SKY/WX    TMP DP  RH WIND       PRES   REMARKS
ALPENA         LGT RAIN  36  33  89 W14G20    29.94R WCI  27
BEAVER ISLAND  CLOUDY    37  34  89 NW10G18   30.00R WCI  30
BELLAIRE       LGT SNOW  35  34  95 W5        30.03R WCI  31
CADILLAC       FLURRIES  32  29  88 W7        30.02R WCI  26
CHARLEVOIX     LGT RAIN  37  34  87 W15G22    30.04R WCI  28
GAYLORD        LGT SNOW  34  30  85 W9        29.96R FOG     WCI  27
HOUGHTON LAKE  CLOUDY    34  28  79 W15       30.00R WCI  24
MANISTEE       CLOUDY    35  28  75 W12       30.09R WCI  27
OSCODA         CLOUDY    39  29  67 W16G22    29.94S WCI  31
PELLSTON       CLOUDY    38  33  82 NW13      29.97R WCI  30
TRAVERSE CITY  FLURRIES  36  32  85 W10       30.04R WCI  28
LUDINGTON      CLOUDY    35  27  74 NW5       30.10R WCI  31
$$
MIZ007>008-015-021700-
EASTERN UPPER MICHIGAN

CITY           SKY/WX    TMP DP  RH WIND       PRES   REMARKS
KINROSS        LGT RAIN  36  35  96 NW13G21   29.93R FOG     WCI  27
MACKINAC ISLAN CLOUDY    36  33  86 NW13G20   29.95R WCI  28
NEWBERRY       CLOUDY    35  34  96 NW8       29.97R WCI  28
S. S. MARIE    CLOUDY    36  33  89 NW13G18   29.92R WCI  27
$$
MIZ004>006-011>014-085-021700-
CENTRAL UPPER MICHIGAN

CITY           SKY/WX    TMP DP  RH WIND       PRES   REMARKS
MANISTIQUE     CLOUDY    36  34  93 NW12G17   30.00R WCI  27
ESCANABA       MOSUNNY   35  26  69 NW14      30.06R WCI  26
MENOMINEE      CLOUDY    34  24  67 MISG      30.12R
SAWYER-GWINN   PTSUNNY   32  27  80 N15G23    30.03R WCI  22
$$
MIZ001>003-009>011-084-021700-
WESTERN UPPER MICHIGAN

CITY           SKY/WX    TMP DP  RH WIND       PRES   REMARKS
IRON MOUNTAIN  CLOUDY    32  24  72 NW14      30.07R WCI  22
HOUGHTON       LGT SNOW  32  27  81 NW16      30.06R WCI  21
COPPER HARBOR    N/A     34  31  88 N20G25    30.07R WCI  23
IRONWOOD       CLOUDY    28  26  92 W9        30.14R WCI  19
$$

ABBREVIATIONS USED IN REMARKS
   TC - TEMPERATURE IN CELSIUS
  WCI - WIND CHILL INDEX
   HX - HEAT INDEX
  VSB - VISIBILITY




USA.gov is the U.S. government's official web portal to all federal, state and local government web resources and services.